Bookmark and Share
Track history (hours):
 

Aadnyj

Last reported at 2014-Apr-21 01:08 UTC. Time now 2014-Apr-21 03:09 UTC.
Position S 13°48' W 137°22'.

Length 56 m.

Type: Towing. MMSI: 413600286.

Water temperature 28.7 ° C

NotesDate/timePositionNaut miles runAvg speedWind from/ knotsBaromVisibWave heightAir tempDewpointWater temp
2014-Apr-21 01:08S 13°48' W 137°22'1 3.7 28.7
2014-Apr-21 00:49S 13°48' W 137°21'1 1.0 28.7
2014-Apr-20 23:52S 13°48' W 137°21'0 3.5 28.6
2014-Apr-20 23:50S 13°48' W 137°21'1 0.8 28.6
2014-Apr-20 22:11S 13°47' W 137°20'1 0.6 28.7
2014-Apr-20 20:05S 13°46' W 137°19'1 9.5 28.6
2014-Apr-20 20:01S 13°46' W 137°19'0 0.0 28.6
2014-Apr-20 19:09S 13°46' W 137°19'0 2.8 28.5
2014-Apr-20 18:59S 13°46' W 137°19'0 0.3 28.5
2014-Apr-20 18:25S 13°46' W 137°19'3 2.1 28.5
2014-Apr-20 17:09S 13°46' W 137°16'0 0.0 28.5
2014-Apr-20 15:29S 13°46' W 137°16'1 0.6 28.5
2014-Apr-20 14:13S 13°46' W 137°17'0 3.1 28.5
2014-Apr-20 14:04S 13°46' W 137°17'1 3.6 28.5
2014-Apr-20 13:53S 13°47' W 137°17'1 0.5 28.5
2014-Apr-20 12:30S 13°46' W 137°17'1 0.6 28.5
2014-Apr-20 11:15S 13°46' W 137°16'1 0.3 28.5
2014-Apr-20 08:01S 13°45' W 137°15'1 1.3 28.5
2014-Apr-20 07:15S 13°45' W 137°14'1 0.4 28.6
2014-Apr-20 04:45S 13°45' W 137°13'1 0.4 28.6
2014-Apr-20 03:08S 13°45' W 137°13'0 1.7 28.7
2014-Apr-20 02:58S 13°45' W 137°12'120.0 28.7
2014-Apr-20 02:56S 13°46' W 137°12'0 0.0 28.7
2014-Apr-20 01:26S 13°46' W 137°12'114.2 28.7
2014-Apr-20 01:23S 13°46' W 137°12'0 0.0 28.7
2014-Apr-20 01:15S 13°46' W 137°12'0 0.2 28.7
2014-Apr-20 00:01S 13°46' W 137°12'1 0.4 28.7
2014-Apr-19 22:16S 13°45' W 137°12'1 0.4 28.7
2014-Apr-19 19:30S 13°45' W 137°11'0 0.3 28.5
2014-Apr-19 18:46S 13°45' W 137°10'0 1.3 28.5
2014-Apr-19 18:34S 13°45' W 137°11'0 0.5 28.5
2014-Apr-19 17:50S 13°45' W 137°11'0 2.5 28.5
2014-Apr-19 17:46S 13°45' W 137°11'0 0.5 28.5
2014-Apr-19 16:58S 13°45' W 137°11'0 0.4 28.5
2014-Apr-19 16:05S 13°45' W 137°11'0 0.2 28.5
2014-Apr-19 14:24S 13°44' W 137°10'0 2.0 28.5
2014-Apr-19 14:15S 13°44' W 137°10'0 0.0 28.5
2014-Apr-19 12:44S 13°44' W 137°10'0 0.2 28.5
2014-Apr-19 11:26S 13°44' W 137°10'2 0.7 28.5
2014-Apr-19 08:22S 13°42' W 137°10'1 1.5 28.5
2014-Apr-19 07:38S 13°42' W 137°08'1 2.2 28.5
2014-Apr-19 07:24S 13°43' W 137°09'0 0.7 28.5
2014-Apr-19 06:44S 13°42' W 137°09'0 0.0 28.5
2014-Apr-19 06:41S 13°42' W 137°09'0 0.6 28.5
2014-Apr-19 05:57S 13°42' W 137°08'0 1.6 28.5
2014-Apr-19 05:47S 13°42' W 137°08'2 1.0 28.5
2014-Apr-19 03:40S 13°42' W 137°06'2 6.5 28.6
2014-Apr-19 03:22S 13°42' W 137°08'2 8.9 28.6
2014-Apr-19 03:09S 13°42' W 137°06'0 0.0 28.6
2014-Apr-19 01:59S 13°42' W 137°06'0 0.0 28.7
2014-Apr-19 01:29S 13°42' W 137°06'1 0.8 28.7
2014-Apr-19 00:10S 13°42' W 137°06'1 0.5 28.7
2014-Apr-18 22:30S 13°42' W 137°06'129.1 28.8
2014-Apr-18 22:28S 13°41' W 137°05'0 0.1 28.8
2014-Apr-18 19:50S 13°41' W 137°05'1 0.9 28.6
2014-Apr-18 19:05S 13°41' W 137°04'0 1.5 28.5
2014-Apr-18 18:53S 13°41' W 137°04'0 0.7 28.5
2014-Apr-18 18:11S 13°41' W 137°04'0 0.6 28.5
2014-Apr-18 17:24S 13°41' W 137°04'2 1.9 28.5
2014-Apr-18 16:36S 13°41' W 137°02'0 0.0 28.5
2014-Apr-18 14:58S 13°41' W 137°02'0 0.0 28.5
2014-Apr-18 14:54S 13°41' W 137°02'0 0.0 28.5
2014-Apr-18 14:34S 13°41' W 137°02'1 0.4 28.5
2014-Apr-18 12:56S 13°42' W 137°02'0 0.4 28.5
2014-Apr-18 11:37S 13°42' W 137°02'1 0.3 28.5
2014-Apr-18 07:40S 13°42' W 137°01'1 1.1 28.6
2014-Apr-18 07:06S 13°43' W 137°01'0 0.0 28.6
2014-Apr-18 07:03S 13°43' W 137°01'1 1.0 28.6
2014-Apr-18 06:16S 13°42' W 137°00'135.7 28.6
2014-Apr-18 06:15S 13°42' W 136°60'1 1.7 28.6
2014-Apr-18 05:22S 13°43' W 136°59'1 1.1 28.6
2014-Apr-18 04:11S 13°42' W 136°60'1 1.9 28.6
2014-Apr-18 03:44S 13°42' W 137°00'2 1.5 28.6
2014-Apr-18 02:28S 13°42' W 136°58'0 0.0 28.7
2014-Apr-18 01:43S 13°42' W 136°58'0 0.4 28.7
2014-Apr-18 00:23S 13°42' W 136°59'0 0.1 28.8
2014-Apr-17 22:44S 13°43' W 136°59'0 2.7 28.8
2014-Apr-17 22:40S 13°42' W 136°59'0 0.2 28.8
2014-Apr-17 20:10S 13°43' W 136°59'1 1.2 28.6
2014-Apr-17 19:27S 13°43' W 136°58'0 1.3 28.6
2014-Apr-17 19:14S 13°43' W 136°58'0 0.0 28.6
2014-Apr-17 19:05S 13°43' W 136°58'2 2.6 28.6
2014-Apr-17 18:29S 13°41' W 136°57'0 0.0 28.5
2014-Apr-17 17:04S 13°41' W 136°57'1 0.6 28.5
2014-Apr-17 14:45S 13°41' W 136°59'1 1.3 28.5
2014-Apr-17 13:47S 13°41' W 136°58'1 0.8 28.5
2014-Apr-17 13:07S 13°41' W 136°58'0 0.0 28.5
2014-Apr-17 11:48S 13°41' W 136°58'1 4.5 28.5
2014-Apr-17 11:37S 13°41' W 136°58'2 0.5 28.5
2014-Apr-17 08:11S 13°39' W 136°58'1 3.1 28.6
2014-Apr-17 07:52S 13°40' W 136°58'1 1.1 28.6
2014-Apr-17 07:24S 13°40' W 136°57'0 0.4 28.6
2014-Apr-17 06:36S 13°39' W 136°57'0 0.7 28.6
2014-Apr-17 06:07S 13°40' W 136°57'0 0.7 28.6
2014-Apr-17 05:44S 13°39' W 136°57'0 0.3 28.6
2014-Apr-17 04:40S 13°40' W 136°57'2 1.0 28.6
2014-Apr-17 03:02S 13°38' W 136°56'1 0.5 28.6
2014-Apr-17 01:54S 13°38' W 136°55'0 0.2 28.7
2014-Apr-17 00:49S 13°38' W 136°55'0 0.0 28.7
2014-Apr-17 00:29S 13°38' W 136°55'1 2.7 28.7
2014-Apr-17 00:13S 13°39' W 136°54'1 0.4 28.7
2014-Apr-16 22:56S 13°38' W 136°55'0 2.1 28.7
2014-Apr-16 22:51S 13°38' W 136°55'2 0.6 28.7
2014-Apr-16 19:45S 13°37' W 136°53'1 1.5 28.6
2014-Apr-16 19:16S 13°37' W 136°54'1 3.5 28.6
2014-Apr-16 19:07S 13°38' W 136°53'0 0.0 28.6
2014-Apr-16 18:53S 13°38' W 136°53'1 0.7 28.6
2014-Apr-16 18:06S 13°37' W 136°54'1 0.7 28.5
2014-Apr-16 17:12S 13°37' W 136°53'0 0.1 28.5
2014-Apr-16 15:59S 13°37' W 136°53'1 1.8 28.5
2014-Apr-16 15:33S 13°36' W 136°52'0 0.6 28.5
2014-Apr-16 14:54S 13°36' W 136°52'0 0.0 28.5
2014-Apr-16 13:15S 13°36' W 136°52'0 0.3 28.5
2014-Apr-16 11:57S 13°36' W 136°52'0 0.1 28.5
2014-Apr-16 10:15S 13°36' W 136°51'1 0.4 28.6
2014-Apr-16 08:03S 13°35' W 136°52'1 2.1 28.6
2014-Apr-16 07:45S 13°36' W 136°51'1 1.7 28.6
2014-Apr-16 07:01S 13°35' W 136°50'120.8 28.7
2014-Apr-16 06:58S 13°34' W 136°49'0 0.0 28.7
2014-Apr-16 06:16S 13°34' W 136°49'1 6.2 28.7
2014-Apr-16 06:05S 13°35' W 136°50'1 0.4 28.7
2014-Apr-16 03:29S 13°34' W 136°49'0 0.5 28.9
2014-Apr-16 02:56S 13°34' W 136°49'0 0.4 28.9
2014-Apr-16 02:00S 13°34' W 136°49'1 6.8 29.0
2014-Apr-16 01:53S 13°34' W 136°48'0 0.2 29.0
2014-Apr-16 00:43S 13°34' W 136°48'1 7.2 29.1
2014-Apr-16 00:37S 13°34' W 136°48'1 0.9 29.1
2014-Apr-15 23:07S 13°35' W 136°47'0 0.0 29.0
2014-Apr-15 23:01S 13°35' W 136°47'0 0.0 28.9
2014-Apr-15 21:21S 13°35' W 136°47'0 0.0 28.9
2014-Apr-15 19:59S 13°35' W 136°47'0 0.0
2014-Apr-15 19:28S 13°35' W 136°47'0 0.9 28.7
2014-Apr-15 19:19S 13°35' W 136°47'0 0.0 28.7
2014-Apr-15 19:13S 13°35' W 136°47'0 0.3 28.7
2014-Apr-15 17:49S 13°35' W 136°46'0 2.6 28.6
2014-Apr-15 17:43S 13°34' W 136°47'0 0.0 28.6
2014-Apr-15 16:30S 13°34' W 136°47'1 0.4 28.5
2014-Apr-15 14:52S 13°34' W 136°46'0 2.5 28.5
2014-Apr-15 14:48S 13°34' W 136°46'0 0.0 28.5
2014-Apr-15 13:29S 13°34' W 136°46'1 3.3 28.6
2014-Apr-15 13:18S 13°34' W 136°46'0 0.8 28.6
2014-Apr-15 12:45S 13°34' W 136°46'0 0.7 28.6
2014-Apr-15 12:08S 13°34' W 136°46'0 2.8 28.6
2014-Apr-15 12:00S 13°34' W 136°45'0 0.0 28.6
2014-Apr-15 10:27S 13°34' W 136°45'1 0.3 28.7
2014-Apr-15 08:16S 13°34' W 136°46'1 3.3 28.9
2014-Apr-15 08:05S 13°34' W 136°45'0 0.4 28.9
2014-Apr-15 07:15S 13°35' W 136°45'0 0.0 29.0
2014-Apr-15 06:30S 13°35' W 136°45'0 0.0 29.0
2014-Apr-15 06:26S 13°35' W 136°45'0 2.0 29.0
2014-Apr-15 06:22S 13°35' W 136°45'1 0.8 29.0
2014-Apr-15 05:39S 13°35' W 136°45'1 0.6 29.0
2014-Apr-15 04:00S 13°34' W 136°45'1 0.7 29.1
2014-Apr-15 03:15S 13°34' W 136°45'0 0.4 29.2
2014-Apr-15 02:21S 13°34' W 136°45'0 4.7 29.7
2014-Apr-15 02:16S 13°34' W 136°45'1 0.4 29.9
2014-Apr-14 23:15S 13°33' W 136°44'0 0.1 30.0
2014-Apr-14 21:29S 13°33' W 136°44'1 0.4 29.1
2014-Apr-14 19:41S 13°33' W 136°44'0 0.0 28.7
2014-Apr-14 19:30S 13°33' W 136°44'0 0.6 28.6
2014-Apr-14 18:45S 13°33' W 136°44'1 0.9 28.5
2014-Apr-14 18:02S 13°32' W 136°44'0 1.3 28.5
2014-Apr-14 17:58S 13°32' W 136°44'0 2.8 28.5
2014-Apr-14 17:54S 13°32' W 136°44'0 3.8 28.5
2014-Apr-14 17:51S 13°32' W 136°44'0 0.0 28.5
2014-Apr-14 17:07S 13°32' W 136°44'0 2.0 28.5
2014-Apr-14 17:00S 13°32' W 136°44'1 0.5 28.5
2014-Apr-14 15:22S 13°31' W 136°44'1 0.7 28.5
2014-Apr-14 13:40S 13°30' W 136°43'0 0.4 28.5
2014-Apr-14 13:10S 13°30' W 136°43'0 0.4 28.5
2014-Apr-14 12:16S 13°30' W 136°43'1 2.3 28.6
2014-Apr-14 11:59S 13°30' W 136°43'1 0.5 28.6
2014-Apr-14 10:40S 13°30' W 136°42'1 0.4 28.6
2014-Apr-14 08:23S 13°29' W 136°43'1 1.9 28.7
2014-Apr-14 07:42S 13°30' W 136°42'0 0.4 28.7
2014-Apr-14 06:47S 13°30' W 136°41'0 1.7 28.7
2014-Apr-14 06:44S 13°30' W 136°41'0 0.4 28.7
2014-Apr-14 06:02S 13°30' W 136°41'0 2.7 28.8
2014-Apr-14 05:59S 13°30' W 136°41'0 0.4 28.8
2014-Apr-14 05:02S 13°30' W 136°41'0 0.0
2014-Apr-14 04:34S 13°30' W 136°41'1 1.4 28.9
2014-Apr-14 03:43S 13°29' W 136°41'0 0.5 28.9
2014-Apr-14 02:56S 13°29' W 136°41'0 0.4 29.0
2014-Apr-14 02:28S 13°29' W 136°41'2 1.2 29.1
2014-Apr-14 00:45S 13°29' W 136°39'0 0.0 29.4
2014-Apr-13 23:26S 13°29' W 136°39'1 0.4 29.6
2014-Apr-13 21:45S 13°29' W 136°38'1 0.3 29.1
2014-Apr-13 19:53S 13°30' W 136°38'1 0.2 28.8
2014-Apr-13 15:05S 13°29' W 136°38'0 0.1 28.5
2014-Apr-13 13:52S 13°29' W 136°38'0 0.9 28.5
2014-Apr-13 13:43S 13°29' W 136°38'0 0.0 28.5
2014-Apr-13 12:27S 13°29' W 136°38'1 0.5 28.5
2014-Apr-13 10:51S 13°28' W 136°38'1 0.4 28.5
2014-Apr-13 09:07S 13°28' W 136°37'0 0.6 28.5
2014-Apr-13 08:36S 13°28' W 136°37'0 0.0 28.5
2014-Apr-13 08:02S 13°28' W 136°37'0 0.4 28.5
2014-Apr-13 07:09S 13°28' W 136°37'0 0.0 28.5
2014-Apr-13 07:06S 13°28' W 136°37'1 3.9 28.5
2014-Apr-13 06:54S 13°28' W 136°36'0 0.4 28.5
2014-Apr-13 06:18S 13°28' W 136°36'0 0.0 28.5
2014-Apr-13 05:16S 13°28' W 136°36'1 0.9 28.5
2014-Apr-13 04:05S 13°27' W 136°37'0 0.0 28.6
2014-Apr-13 03:29S 13°27' W 136°37'1 0.9 28.7
2014-Apr-13 02:39S 13°26' W 136°37'1 1.1 28.7
2014-Apr-13 01:48S 13°26' W 136°36'0 0.3 28.8
2014-Apr-13 00:57S 13°26' W 136°36'1 4.7 28.8
2014-Apr-13 00:46S 13°26' W 136°36'1 1.0 28.8
2014-Apr-12 23:38S 13°25' W 136°36'1 0.6 28.8
2014-Apr-12 21:57S 13°24' W 136°35'0 0.1 28.6
2014-Apr-12 20:10S 13°24' W 136°36'0 0.0 28.5
2014-Apr-12 20:01S 13°24' W 136°36'1 1.3 28.5
2014-Apr-12 19:28S 13°24' W 136°35'1 0.8 28.5
2014-Apr-12 18:36S 13°24' W 136°34'0 2.2 28.5
2014-Apr-12 18:23S 13°24' W 136°35'0 0.9 28.5
2014-Apr-12 17:51S 13°24' W 136°34'1 6.7 28.5
2014-Apr-12 17:45S 13°24' W 136°35'1 0.7 28.5
2014-Apr-12 16:52S 13°24' W 136°34'0 0.7 28.5
2014-Apr-12 16:26S 13°24' W 136°34'1 0.6 28.4
2014-Apr-12 14:46S 13°23' W 136°34'0 0.3 28.4
2014-Apr-12 14:03S 13°23' W 136°33'0 1.2 28.4
2014-Apr-12 14:00S 13°23' W 136°33'1 1.1 28.4
2014-Apr-12 12:36S 13°22' W 136°32'0 0.5 28.5
2014-Apr-12 12:19S 13°22' W 136°32'0 0.0 28.5
2014-Apr-12 11:02S 13°22' W 136°32'0 0.1 28.5
2014-Apr-12 09:16S 13°22' W 136°32'1 0.6 28.5
2014-Apr-12 08:16S 13°21' W 136°32'0 0.1 28.5
2014-Apr-12 07:28S 13°21' W 136°32'0 1.3 28.5
2014-Apr-12 07:11S 13°22' W 136°31'0 0.1 28.5
2014-Apr-12 06:44S 13°22' W 136°32'0 0.0 28.5
2014-Apr-12 06:40S 13°22' W 136°32'1 1.3 28.5
2014-Apr-12 05:48S 13°22' W 136°30'0 0.0 28.5
2014-Apr-12 05:30S 13°22' W 136°30'1 0.6 28.5
2014-Apr-12 03:58S 13°21' W 136°31'1 1.2 28.5
2014-Apr-12 02:50S 13°20' W 136°31'1 0.4 28.5
2014-Apr-12 01:13S 13°21' W 136°30'0 0.7 28.6
2014-Apr-12 01:08S 13°21' W 136°30'1 0.6 28.6
2014-Apr-11 23:44S 13°20' W 136°29'1 0.2 28.6
2014-Apr-11 20:13S 13°20' W 136°29'0 0.0 28.5
2014-Apr-11 19:46S 13°20' W 136°29'0 0.3 28.5
2014-Apr-11 18:56S 13°19' W 136°29'0 1.1 28.5
2014-Apr-11 18:37S 13°19' W 136°29'0 0.4 28.5
2014-Apr-11 18:11S 13°19' W 136°29'0 0.3 28.5
2014-Apr-11 16:53S 13°19' W 136°29'0 0.2 28.4
2014-Apr-11 15:16S 13°19' W 136°28'1 0.6 28.4
2014-Apr-11 14:14S 13°18' W 136°28'1 4.8 28.4
2014-Apr-11 14:06S 13°18' W 136°29'0 0.0 28.4
2014-Apr-11 12:30S 13°18' W 136°29'0 0.3 28.4
2014-Apr-11 11:12S 13°18' W 136°28'2 0.4 28.4
2014-Apr-11 07:45S 13°16' W 136°28'0 0.2 28.5
2014-Apr-11 07:26S 13°16' W 136°28'1 2.8 28.5
2014-Apr-11 07:04S 13°17' W 136°29'0 3.5 28.5
2014-Apr-11 07:03S 13°17' W 136°29'1 1.6 28.5
2014-Apr-11 06:10S 13°17' W 136°27'0 0.0 28.5
2014-Apr-11 04:28S 13°17' W 136°27'2 1.5 28.5
2014-Apr-11 03:00S 13°15' W 136°27'1 3.3 28.5
2014-Apr-11 02:50S 13°15' W 136°27'0 0.2 28.5
2014-Apr-11 01:39S 13°15' W 136°27'1 3.3 28.6
2014-Apr-11 01:23S 13°14' W 136°26'0 0.0 28.5
2014-Apr-11 01:16S 13°14' W 136°26'   28.6

Dump ship's entire track history

sailing weather and tide predictions

Buoy 32622